This is the latest recevied weather packets stored in our database for station/object ES0THZ-9. If no packets are shown the sender has not sent any weather packets the latest 10 day(s).
| Time | Temp. | Humidity | Pressure | Rain* | Wind** | Luminosity | Snow |
|---|---|---|---|---|---|---|---|
| 1777884264 | 9.44° C | 83% | 1003.5 hPa | 0.25 mm | - | - | - |
| 1777883058 | 10° C | 80% | 1003.2 hPa | 0 mm | - | - | - |
| 1777881895 | 10.56° C | 79% | 1003.8 hPa | 0 mm | - | - | - |
| 1777881252 | 11.11° C | 79% | 1003.5 hPa | 0 mm | - | - | - |
| 1777877640 | 10° C | 82% | 1003.5 hPa | 0 mm | - | - | - |
| 1777875252 | 8.89° C | 85% | 1003.7 hPa | 0 mm | - | - | - |
| 1777873447 | 8.89° C | 84% | 1004.7 hPa | 0 mm | - | - | - |
| 1777871621 | 8.89° C | 84% | 1004.5 hPa | 0 mm | - | - | - |
| 1777871020 | 9.44° C | 84% | 1004.4 hPa | 0 mm | - | - | - |
| 1777869814 | 8.89° C | 88% | 1004.7 hPa | 0 mm | - | - | - |
| 1777869213 | 8.33° C | 90% | 1004.9 hPa | 0 mm | - | - | - |
| 1777864999 | 6.11° C | 89% | 1005.9 hPa | 0 mm | - | - | - |
| 1777861988 | 6.11° C | 88% | 1006.2 hPa | 0 mm | - | - | - |
| 1777858978 | 6.67° C | 88% | 1006.6 hPa | 0 mm | - | - | - |
| 1777857774 | 6.67° C | 87% | 1006.6 hPa | 0 mm | - | - | - |
| 1777855968 | 6.67° C | 87% | 1006.6 hPa | 0 mm | - | - | - |
| 1777854764 | 6.67° C | 87% | 1006.9 hPa | 0 mm | - | - | - |
| 1777852356 | 7.22° C | 87% | 1007 hPa | 0 mm | - | - | - |
| 1777851152 | 7.22° C | 87% | 1007.2 hPa | 0 mm | - | - | - |
| 1777850550 | 7.22° C | 87% | 1007.3 hPa | 0 mm | - | - | - |
| 1777849969 | 7.22° C | 87% | 1007.2 hPa | 0 mm | - | - | - |
| 1777848745 | 7.22° C | 87% | 1007.3 hPa | 0 mm | - | - | - |
| 1777843327 | 7.22° C | 86% | 1007.7 hPa | 0 mm | - | - | - |
| 1777840918 | 7.78° C | 85% | 1007.9 hPa | 0 mm | - | - | - |
| 1777839132 | 8.33° C | 82% | 1008.1 hPa | 0 mm | - | - | - |
* Rain latest hour (hover to see other rain measurements)
** Current wind speed in m/s (hover to see current wind gust speed)